DW9234 Weather Reports


time (UTC)temp
C
wind
direction
speed
KPH
gust
KPH
rain 1hr
cm
rain 24hr
cm
rain mn
cm
humidity
%
barometer
mb
20260504082004 7 171 0.0 0.0 0.00 0.00 0.00 64 1017.0
20260504081005 7 171 0.0 1.6 0.00 0.00 0.00 64 1017.1
20260504050003 8 60 0.0 3.2 0.00 0.00 0.00 57 1017.0
20260504043004 8 80 0.0 0.0 0.00 0.00 0.00 54 1017.0
20260504042003 8 22 0.0 0.0 0.00 0.00 0.00 54 1016.8
20260504041004 8 22 0.0 0.0 0.00 0.00 0.00 54 1016.6
20260504040004 8 22 0.0 0.0 0.00 0.00 0.00 54 1016.6
20260504034004 9 288 0.0 0.0 0.00 0.00 0.00 51 1016.5
20260504033004 10 289 0.0 0.0 0.00 0.00 0.00 50 1016.3
20260504032004 10 289 0.0 0.0 0.00 0.00 0.00 48 1016.3
20260504031004 10 289 0.0 0.0 0.00 0.00 0.00 48 1016.2
20260504030004 10 262 0.0 1.6 0.00 0.00 0.00 47 1016.1
20260504024005 10 262 0.0 1.6 0.00 0.00 0.00 44 1016.1
20260504023004 10 262 0.0 1.6 0.00 0.00 0.00 42 1016.2
20260504022003 11 262 0.0 3.2 0.00 0.00 0.00 41 1016.1
20260504021004 11 262 0.0 3.2 0.00 0.00 0.00 41 1016.2
20260504020005 11 263 0.0 6.4 0.00 0.00 0.00 41 1016.2
20260504015004 11 254 3.2 4.8 0.00 0.00 0.00 41 1016.2
20260504014005 11 254 3.2 3.2 0.00 0.00 0.00 40 1016.0
20260504013005 11 254 0.0 1.6 0.00 0.00 0.00 41 1015.9
20260504012004 11 254 1.6 3.2 0.00 0.00 0.00 41 1015.9
20260504011004 12 254 3.2 3.2 0.00 0.00 0.00 41 1015.8
20260504010004 12 255 0.0 3.2 0.00 0.00 0.00 38 1015.7
20260504005004 12 260 0.0 0.0 0.00 0.00 0.00 38 1015.5
20260504004004 12 260 0.0 0.0 0.00 0.00 0.00 38 1015.5
20260504003005 13 260 0.0 0.0 0.00 0.00 0.00 36 1015.3
20260504002004 13 262 0.0 3.2 0.00 0.00 0.00 34 1015.2
20260504001004 13 261 0.0 1.6 0.00 0.00 0.00 32 1015.1
20260504000004 14 261 0.0 1.6 0.00 0.00 0.00 32 1015.0
20260503235005 15 262 1.6 6.4 0.00 0.00 0.00 29 1014.9
20260503233005 15 117 0.0 11.3 0.00 0.00 0.00 25 1015.0
20260503232004 15 248 0.0 11.3 0.00 0.00 0.00 23 1015.0
20260503231005 15 251 3.2 8.0 0.00 0.00 0.00 23 1014.9
20260503230003 15 219 0.0 6.4 0.00 0.00 0.00 22 1014.7
20260503225003 15 5 0.0 14.5 0.00 0.00 0.00 23 1014.7
20260503224004 15 355 0.0 16.1 0.00 0.00 0.00 21 1014.8
20260503223003 16 263 0.0 14.5 0.00 0.00 0.00 21 1014.9
20260503222004 16 217 6.4 9.7 0.00 0.00 0.00 21 1014.8
20260503221004 16 241 9.7 14.5 0.00 0.00 0.00 20 1014.8
20260503220005 16 319 6.4 14.5 0.00 0.00 0.00 22 1014.8
20260503215005 16 248 1.6 11.3 0.00 0.00 0.00 21 1014.9
20260503213004 16 116 6.4 11.3 0.00 0.00 0.00 20 1014.8
20260503205004 16 266 3.2 16.1 0.00 0.00 0.00 21 1014.8
20260503202004 16 71 8.0 19.3 0.00 0.00 0.00 21 1015.0
20260503201003 16 84 8.0 32.2 0.00 0.00 0.00 21 1015.1
20260503195005 16 60 3.2 14.5 0.00 0.00 0.00 23 1015.2
20260503194005 16 334 0.0 17.7 0.00 0.00 0.00 24 1015.2
20260503193004 15 55 9.7 14.5 0.00 0.00 0.00 24 1015.3
20260503192005 16 47 6.4 29.0 0.00 0.00 0.00 24 1015.5
20260503190005 15 117 6.4 12.9 0.00 0.00 0.00 23 1015.5
20260503185005 15 209 14.5 19.3 0.00 0.00 0.00 23 1015.8
20260503184003 16 72 6.4 19.3 0.00 0.00 0.00 23 1015.8
20260503183005 15 286 12.9 19.3 0.00 0.00 0.00 25 1015.9
20260503182006 16 57 6.4 20.9 0.00 0.00 0.00 21 1015.8
20260503181004 15 254 6.4 20.9 0.00 0.00 0.00 23 1015.9
20260503180004 15 46 9.7 17.7 0.00 0.00 0.00 24 1016.0
20260503175004 15 67 6.4 16.1 0.00 0.00 0.00 24 1016.0
20260503174004 15 53 4.8 12.9 0.00 0.00 0.00 22 1016.1
20260503173004 14 340 1.6 25.7 0.00 0.00 0.00 23 1016.1
20260503172004 14 60 8.0 11.3 0.00 0.00 0.00 26 1016.1
20260503171004 13 56 8.0 19.3 0.00 0.00 0.00 26 1016.2
20260503131005 8 64 8.0 11.3 0.00 0.00 0.00 45 1016.5